Selawik, AK

1:25 PM AKDT on June 26, 2017 (GMT -0800)
Selawik

Weather History for PASK - December, 2013

Change the Weather History Date:

Monday, December 23, 2013

  Actual Average Record
Temperature  
Mean Temperature -11 °F -  
Max Temperature 1 °F 0 °F 21 °F (2008)
Min Temperature -23 °F -9 °F -34 °F (2011)
Degree Days  
Heating Degree Days 76    
Moisture  
Dew Point -10 °F    
Average Humidity 89    
Maximum Humidity 100    
Minimum Humidity 63    
Precipitation  
Precipitation 0.00 in - - ()
Sea Level Pressure  
Sea Level Pressure 30.09 in    
Wind  
Wind Speed 4 mph (West)    
Max Wind Speed 14 mph    
Max Gust Speed 18 mph    
Visibility 8 miles    
Events      
Averages and records for this station are not official NWS values.
T = Trace of Precipitation, MM = Missing Value Source: NWS Daily Summary

Daily Weather History Graph

Daily Weather History Graph

Search for Another Location

Airport or City:

Trip Planner

Search our weather history database for the weather conditions in past years. The results will help you decide how hot, cold, wet, or windy it might be!

Date:

Astronomy

Dec. 23, 2013 Rise Set
Actual Time 12:35 PM AKST 2:43 PM AKST
Civil Twilight 10:41 AM AKST 4:37 PM AKST
Nautical Twilight 9:21 AM AKST 5:57 PM AKST
Astronomical Twilight 8:14 AM AKST 7:04 PM AKST
Moon No Moon Rise 12:47 PM AKST (12/23)
Length of Visible Light 5h 55m
Length of Day
2h 08m
Waning Gibbous, 66% of the Moon is Illuminated
Dec 23
Waning Gibbous
Dec 25
Last Quarter
Jan 1
New
Jan 7
First Quarter
Jan 15
Full

Hourly Weather History & Observations

Time (AKST) Temp. Windchill Dew Point Humidity Pressure Visibility Wind Dir Wind Speed Gust Speed Precip Events Conditions
12:16 AM -13.0 °F -22.7 °F -16.6 °F 84% 29.90 in 9.0 mi NNE 3.5 mph - N/A   Scattered Clouds
12:36 AM -14.8 °F -24.8 °F -14.8 °F 100% 29.90 in 10.0 mi NE 3.5 mph - N/A   Scattered Clouds
12:56 AM -14.8 °F -24.8 °F -16.6 °F 92% 29.91 in 8.0 mi NE 3.5 mph - N/A   Mostly Cloudy
1:16 AM -13.0 °F -22.7 °F -14.8 °F 92% 29.90 in 7.0 mi NE 3.5 mph - N/A   Overcast
1:36 AM -11.2 °F - -11.2 °F 100% 29.91 in 10.0 mi Calm Calm - N/A   Overcast
1:56 AM -11.2 °F -23.0 °F -13.0 °F 92% 29.92 in 10.0 mi NNE 4.6 mph - N/A   Overcast
2:16 AM -11.2 °F - -14.8 °F 84% 29.93 in 10.0 mi Calm Calm - N/A   Overcast
2:36 AM -11.2 °F - -11.2 °F 100% 29.93 in 10.0 mi Calm Calm - N/A   Overcast
2:56 AM -11.2 °F -20.6 °F -11.2 °F 100% 29.94 in 10.0 mi East 3.5 mph - N/A   Overcast
3:16 AM -11.2 °F - -11.2 °F 100% 29.94 in 10.0 mi Calm Calm - N/A   Overcast
3:36 AM -11.2 °F - -11.2 °F 100% 29.95 in 10.0 mi Calm Calm - N/A   Overcast
3:56 AM -11.2 °F - -11.2 °F 100% 29.95 in 10.0 mi Calm Calm - N/A   Overcast
4:16 AM -11.2 °F - -11.2 °F 100% 29.96 in 10.0 mi Calm Calm - N/A   Overcast
4:36 AM -9.4 °F - -9.4 °F 100% 29.96 in 10.0 mi Calm Calm - N/A   Overcast
4:56 AM -9.4 °F - -9.4 °F 100% 29.97 in 10.0 mi Calm Calm - N/A   Overcast
5:16 AM -9.4 °F - -9.4 °F 100% 29.98 in 10.0 mi Calm Calm - N/A   Overcast
5:36 AM -9.4 °F - -11.2 °F 92% 29.98 in 10.0 mi Calm Calm - N/A   Overcast
5:56 AM -9.4 °F - -13.0 °F 84% 29.98 in 10.0 mi Calm Calm - N/A   Overcast
6:16 AM -9.4 °F - -13.0 °F 84% 29.99 in 10.0 mi Calm Calm - N/A   Overcast
6:36 AM -9.4 °F - -13.0 °F 84% 30.00 in 10.0 mi Calm Calm - N/A   Overcast
6:56 AM -9.4 °F -18.6 °F -11.2 °F 92% 30.00 in 10.0 mi West 3.5 mph - N/A   Overcast
7:16 AM -9.4 °F -20.9 °F -11.2 °F 92% 30.01 in 10.0 mi WSW 4.6 mph - N/A   Overcast
7:36 AM -7.6 °F -16.5 °F -7.6 °F 100% 30.01 in 10.0 mi West 3.5 mph - N/A   Overcast
7:56 AM -5.8 °F -18.4 °F -9.4 °F 84% 30.01 in 10.0 mi West 5.8 mph - N/A   Overcast
8:16 AM -2.2 °F -15.6 °F -2.2 °F 100% 30.01 in 10.0 mi WSW 6.9 mph - N/A   Overcast
8:36 AM -2.2 °F -16.8 °F -5.8 °F 85% 30.02 in 10.0 mi West 8.1 mph - N/A   Mostly Cloudy
8:56 AM -4.0 °F -19.0 °F -7.6 °F 85% 30.02 in 5.0 mi WSW 8.1 mph - N/A   Mostly Cloudy
9:16 AM -4.0 °F -17.8 °F -7.6 °F 85% 30.03 in 5.0 mi WSW 6.9 mph - N/A   Mostly Cloudy
9:36 AM -2.2 °F -21.5 °F -5.8 °F 85% 30.03 in 8.0 mi WSW 13.8 mph - N/A   Mostly Cloudy
9:56 AM -2.2 °F -19.9 °F -2.2 °F 100% 30.05 in 7.0 mi West 11.5 mph - N/A   Overcast
10:16 AM -0.4 °F -19.2 °F -5.8 °F 78% 30.05 in 7.0 mi West 13.8 mph - N/A   Overcast
10:36 AM -0.4 °F -18.4 °F -0.4 °F 100% 30.06 in 5.0 mi West 12.7 mph 18.4 mph N/A   Overcast
10:56 AM -0.4 °F -17.6 °F -2.2 °F 92% 30.07 in 7.0 mi WSW 11.5 mph - N/A   Overcast
11:16 AM -0.4 °F -15.7 °F -4.0 °F 85% 30.07 in 8.0 mi WSW 9.2 mph - N/A   Overcast
11:36 AM -0.4 °F -16.7 °F -5.8 °F 78% 30.08 in 6.0 mi WSW 10.4 mph - N/A   Overcast
11:56 AM -0.4 °F -16.7 °F -0.4 °F 100% 30.09 in 5.0 mi WSW 10.4 mph - N/A   Overcast
12:16 PM 1.4 °F -14.5 °F -2.2 °F 85% 30.10 in 5.0 mi WSW 10.4 mph 17.3 mph N/A   Overcast
12:36 PM 1.4 °F -14.5 °F -0.4 °F 92% 30.10 in 3.0 mi West 10.4 mph 16.1 mph N/A   Overcast
12:56 PM 1.4 °F -15.3 °F -2.2 °F 85% 30.11 in 7.0 mi West 11.5 mph - N/A   Overcast
1:16 PM -0.4 °F -17.6 °F -4.0 °F 85% 30.12 in 9.0 mi West 11.5 mph - N/A   Mostly Cloudy
1:36 PM -2.2 °F -15.6 °F -5.8 °F 85% 30.12 in 8.0 mi West 6.9 mph - N/A   Clear
1:56 PM -4.0 °F -16.3 °F -7.6 °F 85% 30.12 in 7.0 mi WSW 5.8 mph - N/A   Clear
2:16 PM -4.0 °F -17.8 °F -7.6 °F 85% 30.13 in 7.0 mi WSW 6.9 mph - N/A   Mostly Cloudy
2:36 PM -4.0 °F -14.6 °F -7.6 °F 85% 30.14 in 4.0 mi WSW 4.6 mph - N/A   Overcast
2:56 PM -4.0 °F -14.6 °F -5.8 °F 92% 30.14 in 2.0 mi WSW 4.6 mph - N/A   Overcast
3:16 PM -2.2 °F -10.4 °F -7.6 °F 78% 30.14 in 2.5 mi West 3.5 mph - N/A   Overcast
3:36 PM -4.0 °F -12.4 °F -5.8 °F 92% 30.15 in 2.5 mi WSW 3.5 mph - N/A   Overcast
3:56 PM -4.0 °F -16.3 °F -5.8 °F 92% 30.15 in 5.0 mi West 5.8 mph - N/A   Overcast
4:16 PM -5.8 °F -21.2 °F -7.6 °F 92% 30.15 in 10.0 mi WSW 8.1 mph - N/A   Scattered Clouds
4:36 PM -5.8 °F -22.4 °F -7.6 °F 92% 30.16 in 5.0 mi WSW 9.2 mph - N/A   Clear
4:56 PM -5.8 °F -19.9 °F -9.4 °F 84% 30.16 in 6.0 mi West 6.9 mph - N/A   Clear
5:16 PM -7.6 °F -20.6 °F -14.8 °F 71% 30.17 in 4.0 mi West 5.8 mph - N/A   Clear
5:36 PM -9.4 °F -22.7 °F -14.8 °F 77% 30.17 in 5.0 mi West 5.8 mph - N/A   Clear
5:56 PM -11.2 °F -24.8 °F -16.6 °F 77% 30.17 in 10.0 mi WNW 5.8 mph - N/A   Clear
6:16 PM -14.8 °F - -16.6 °F 92% 30.18 in 9.0 mi Calm Calm - N/A   Clear
6:36 PM -18.4 °F - -25.6 °F 70% 30.19 in 10.0 mi Calm Calm - N/A   Clear
6:56 PM -20.2 °F - -27.4 °F 69% 30.20 in 10.0 mi Calm Calm - N/A   Clear
7:16 PM -18.4 °F -28.9 °F -18.4 °F 100% 30.20 in 5.0 mi West 3.5 mph - N/A   Clear
7:36 PM - - - N/A% 30.20 in 7.0 mi West 4.6 mph - N/A   Clear
7:56 PM -18.4 °F - -27.4 °F 63% 30.21 in 8.0 mi Calm Calm - N/A   Clear
8:16 PM -20.2 °F - - N/A% 30.22 in 10.0 mi Calm Calm - N/A   Clear
8:36 PM -22.0 °F -33.0 °F - N/A% 30.22 in 10.0 mi North 3.5 mph - N/A   Clear
8:56 PM -23.8 °F - - N/A% 30.22 in 10.0 mi Calm Calm - N/A   Clear
9:16 PM -23.8 °F - - N/A% 30.23 in 10.0 mi Calm Calm - N/A   Clear
9:36 PM -23.8 °F - - N/A% 30.24 in 10.0 mi Calm Calm - N/A   Clear
9:56 PM -23.8 °F - - N/A% 30.25 in 10.0 mi Calm Calm - N/A   Clear
10:16 PM -23.8 °F - - N/A% 30.25 in 10.0 mi Calm Calm - N/A   Clear
10:36 PM -23.8 °F - - N/A% 30.26 in 10.0 mi Calm Calm - N/A   Partly Cloudy
10:56 PM -22.0 °F - - N/A% 30.26 in 3.0 mi Calm Calm - N/A   Mostly Cloudy
11:16 PM -18.4 °F -28.9 °F -27.4 °F 63% 30.26 in 4.0 mi ENE 3.5 mph - N/A   Overcast
11:36 PM -18.4 °F - -22.0 °F 84% 30.27 in 5.0 mi Calm Calm - N/A   Overcast
11:56 PM - - - N/A% 30.27 in 8.0 mi ENE 3.5 mph - N/A   Overcast